Location: Aydie
(43.5695°N, 0.1043°W)
Time: 07:24:14
(UTC+00:00)

CZ-2D R/B - Pass Details

Date: 17 November 2025
Orbit: 525 x 597 km, 98.0° (Epoch: 13 December)

Event Time Altitude Azimuth Distance (km) Brightness Sun altitude
Rises 17:44:55 0° 148° (SSE) 2,780 6.7 -13.0°
Reaches altitude 10° 17:47:07 10° 142° (SE) 1,896 5.8 -13.4°
Maximum altitude 17:51:01 42° 71° (ENE) 843 3.8 -14.1°
Drops below altitude 10° 17:55:00 10° 0° (N) 1,939 6.0 -14.8°
Sets 17:57:15 0° 354° (N) 2,851 6.9 -15.2°
